Theta_e
336 335 341 342 343 339 337 336 337 340 340 343 342 341 340 338 338 335 336 336 335 335 334 335 340 341 338 338 339 337 341 343 344 342 341 342 342 340 341 340 341 340 339 336 336 335 335 335 334 333 333 330 333 336 335 334 333 332 333 332 330 330 330 330 329 329 328 327 327 327 326 325 326 325 325 325 324 324 324 324 324 325 325 325 324
332 332 337 337 337 335 335 334 334 335 339 341 343 344 341 339 337 335 333 335 335 334 335 335 337 338 334 336 339 338 341 340 341 339 340 342 343 341 340 340 339 340 339 340 337 336 334 335 335 334 333 332 331 335 337 335 334 334 333 331 331 331 330 330 329 329 328 328 326 326 326 326 326 325 325 325 325 324 324 324 323 323 323 323 323
337 338 339 341 340 338 336 336 335 335 335 339 344 343 342 339 337 335 336 335 335 333 333 335 335 334 337 335 336 340 342 342 340 340 340 342 343 342 341 339 339 338 338 338 339 337 336 335 334 335 334 333 333 331 332 336 336 335 334 333 332 331 331 329 329 329 328 327 327 326 326 326 326 326 324 324 324 324 324 323 323 323 323 324 323
341 341 340 340 338 336 337 334 333 336 337 338 341 344 343 340 341 340 338 337 336 338 340 334 336 335 336 332 335 338 338 338 338 341 340 342 342 342 341 341 339 339 337 337 337 337 338 338 336 335 335 333 334 333 331 330 331 337 336 334 332 331 331 331 330 330 329 328 326 328 327 326 326 325 325 324 324 323 323 323 323 322 322 322 323
341 340 338 339 341 340 339 337 334 335 336 337 337 342 344 343 340 339 339 338 337 336 335 336 335 335 336 335 338 336 338 337 339 339 337 339 339 338 339 341 340 337 337 338 337 337 337 338 338 337 336 334 334 334 333 333 331 331 338 336 334 333 333 331 331 330 329 329 328 328 328 326 326 326 324 324 324 323 323 323 323 322 322 322 322
340 339 339 340 340 339 337 337 336 333 335 338 339 342 342 341 337 338 337 337 335 335 334 332 332 334 335 335 338 341 340 337 337 337 338 340 339 340 338 337 337 340 340 339 339 337 337 338 338 338 337 336 334 334 334 334 333 332 331 337 335 334 333 333 332 331 330 329 328 328 327 327 326 326 325 324 324 324 323 323 322 323 322 321 322
341 340 338 341 340 338 336 338 337 334 333 337 337 342 342 341 337 337 337 337 338 338 336 336 335 334 336 337 335 336 338 337 337 339 338 341 343 341 340 337 338 338 339 340 339 338 338 338 338 338 339 338 337 336 335 335 335 334 333 339 337 335 334 333 333 332 331 330 329 329 328 328 327 326 326 324 324 324 323 323 323 323 322 321 321
340 340 339 340 339 338 338 339 338 336 331 336 335 336 342 342 342 337 334 337 338 338 339 338 338 336 336 336 336 336 336 337 337 335 335 338 338 340 341 340 339 338 338 339 341 340 335 337 337 337 338 339 339 338 337 336 335 334 335 335 339 337 335 334 333 333 332 331 330 330 329 328 328 327 327 326 325 324 324 323 323 323 322 322 321
342 340 341 341 340 340 339 341 342 338 333 336 336 337 341 342 341 341 338 337 334 335 337 338 337 337 337 336 336 336 336 336 336 337 335 335 335 336 339 339 340 336 341 341 339 339 334 337 338 337 337 338 339 339 338 338 337 337 336 336 338 338 336 335 334 334 333 332 331 331 330 329 329 328 327 327 325 325 324 324 323 323 322 322 322
341 341 342 341 341 340 340 341 342 341 337 333 338 336 342 342 341 343 341 340 336 335 334 336 336 336 337 336 337 336 335 336 337 336 336 335 335 336 336 337 337 338 339 340 340 338 339 338 338 335 335 336 336 339 339 338 337 337 337 336 337 336 337 337 336 335 334 333 332 331 330 330 330 329 328 328 327 326 325 324 324 323 322 322 322
341 341 340 340 341 341 341 342 342 337 333 332 340 340 341 342 342 340 342 340 338 337 334 334 334 333 333 336 336 334 335 335 336 335 334 335 333 333 336 336 337 338 340 339 340 339 342 340 340 339 337 333 337 337 339 339 339 337 337 336 337 336 336 336 337 336 335 335 334 333 332 332 330 330 330 329 328 327 325 325 324 324 323 323 322
342 338 341 341 340 341 342 342 338 333 332 336 335 339 339 340 340 339 338 338 339 339 337 334 334 334 335 336 337 336 335 334 334 334 335 335 334 333 332 333 336 337 338 340 340 339 341 342 342 340 338 336 334 336 337 336 336 337 338 338 338 337 336 337 336 336 336 336 335 334 334 332 331 331 330 330 329 328 327 325 325 324 324 323 323
341 342 342 340 340 341 340 338 336 334 334 339 337 333 337 337 337 339 338 337 337 339 338 337 332 332 334 334 335 337 336 336 334 334 333 332 332 331 331 331 333 334 335 336 336 337 338 339 340 340 338 337 338 335 334 334 335 336 337 337 337 338 338 338 337 337 336 336 336 336 336 334 333 332 331 331 330 329 328 327 326 325 325 324 323
340 341 341 340 340 339 338 336 337 339 340 340 339 334 336 338 339 337 339 335 334 335 337 336 329 325 324 326 328 331 335 336 333 331 332 330 332 332 331 331 330 331 332 332 333 333 333 335 337 337 337 338 337 338 338 337 337 333 334 334 336 338 337 337 337 337 336 336 336 336 336 336 334 333 332 332 331 330 329 328 327 326 326 325 324
340 340 339 339 340 340 339 340 341 339 338 338 338 337 337 337 337 336 334 336 334 336 337 335 325 327 329 324 319 322 327 331 331 330 330 332 331 329 330 328 327 327 329 329 329 330 331 334 335 337 339 338 337 338 338 334 332 331 330 330 333 336 338 337 337 337 338 337 336 336 335 335 335 333 333 332 332 331 330 330 328 327 326 326 325
339 339 339 339 340 340 340 340 339 340 339 337 337 337 338 337 336 336 336 332 331 332 336 336 333 327 320 320 321 319 314 316 323 326 329 328 326 327 326 325 326 326 326 326 327 330 332 333 335 338 338 339 339 339 338 336 333 328 325 324 325 328 332 335 335 336 336 337 337 337 335 335 335 335 334 333 333 332 331 331 330 329 328 327 326
336 338 340 340 340 340 340 340 339 340 339 338 337 337 338 338 337 336 336 332 329 332 334 337 335 337 327 322 318 317 317 321 322 324 327 324 322 324 325 324 324 324 324 325 326 328 328 330 333 335 338 339 339 338 339 337 336 334 326 320 320 321 321 325 327 331 334 336 337 337 336 336 336 335 335 334 333 333 332 332 331 331 329 329 328
333 334 335 337 340 340 340 338 339 338 338 338 337 336 337 336 336 335 334 334 332 329 330 334 336 336 337 333 329 323 320 320 320 314 324 323 322 321 322 322 322 321 322 323 324 324 326 328 331 332 334 336 337 337 333 328 327 325 324 320 316 316 315 317 322 326 331 333 334 336 337 337 336 335 335 335 334 333 333 332 332 331 331 330 329
333 334 335 334 334 334 333 332 331 332 334 334 334 335 332 334 337 335 333 333 333 329 330 330 333 334 335 336 335 331 329 323 319 319 315 317 319 319 319 320 320 320 319 321 322 323 324 325 328 329 331 333 332 332 329 325 322 321 318 316 315 314 312 311 315 320 328 331 333 333 335 336 337 336 335 335 335 334 334 333 333 333 332 331 331
332 332 333 332 333 332 332 331 328 329 327 329 330 330 332 336 338 336 335 334 334 330 329 330 328 329 333 332 330 330 330 330 325 320 318 312 311 316 319 321 320 320 319 319 320 321 322 322 322 323 326 327 329 330 329 326 324 322 319 314 314 314 312 310 309 310 317 330 333 333 333 334 335 336 336 335 334 334 334 334 334 334 334 333 332
332 332 332 331 331 330 331 330 330 329 328 328 331 331 334 338 337 336 334 333 332 333 332 329 329 328 330 331 330 328 328 328 329 327 319 312 310 312 313 318 319 318 318 319 319 320 319 319 319 320 322 324 325 324 324 325 322 319 315 313 312 312 311 308 306 307 309 322 330 334 334 334 335 335 335 335 334 334 334 334 334 335 335 334 334
332 331 331 330 329 330 329 331 333 329 328 330 332 333 335 336 337 337 336 334 335 334 332 331 330 331 331 330 329 327 327 326 324 324 319 317 311 309 312 313 311 314 318 317 317 317 317 318 319 318 319 321 321 320 320 320 318 317 315 311 312 311 309 307 304 306 311 316 324 330 334 334 334 334 333 333 334 334 334 334 335 335 335 335 335
328 331 331 330 330 330 330 331 332 331 328 329 331 330 333 335 336 336 336 334 333 333 333 332 332 331 330 329 327 325 323 320 320 319 317 314 312 312 313 312 312 312 314 316 316 315 315 316 316 316 318 319 319 319 319 318 315 312 310 310 310 309 308 306 304 304 308 314 317 324 328 329 331 332 332 333 333 334 333 334 335 335 335 335 335
328 328 329 329 329 329 332 331 329 330 328 330 330 330 332 332 333 336 335 334 334 333 333 332 331 331 331 328 325 323 322 320 319 318 315 315 315 313 311 312 312 312 313 315 314 313 313 312 313 314 316 317 318 319 318 317 314 313 311 308 308 308 307 307 304 303 302 307 311 316 322 324 324 325 326 327 330 330 330 330 329 328 330 332 334
325 325 327 328 327 328 329 327 328 329 329 327 329 330 330 330 332 334 335 334 333 333 331 333 332 329 324 323 318 317 317 317 317 316 316 317 316 312 312 313 311 311 313 314 311 311 311 309 310 311 313 315 316 317 317 316 315 315 312 309 306 307 306 306 306 304 302 301 305 309 313 317 320 321 321 320 320 320 319 316 311 310 312 313 317
325 325 325 326 327 329 329 329 329 329 329 329 329 327 327 324 328 330 331 333 333 330 328 327 326 324 323 318 317 315 315 316 316 315 315 315 313 313 313 314 313 310 312 312 313 309 308 308 309 309 311 314 316 317 317 316 317 313 312 310 308 305 305 305 305 304 303 302 301 304 306 308 311 313 314 313 312 311 310 308 308 308 308 308 309
323 326 326 327 328 328 328 327 328 329 329 328 327 327 327 325 324 326 326 326 324 323 322 323 322 320 321 317 315 314 314 315 315 314 313 316 316 315 314 311 310 310 309 311 311 310 307 307 308 308 309 314 315 315 315 315 313 312 314 316 311 304 304 304 305 304 303 302 301 300 301 302 304 306 306 307 307 307 309 309 307 306 307 308 309
325 326 326 326 326 325 325 325 325 325 326 325 325 325 325 323 322 323 321 321 322 321 320 321 321 320 318 317 316 314 317 315 317 317 315 316 317 316 316 314 309 307 310 308 308 307 309 307 307 308 308 310 311 313 312 311 313 312 314 317 313 309 303 303 303 303 302 301 300 300 299 300 301 303 304 305 307 306 307 307 306 306 305 306 307
325 327 325 327 326 325 323 323 323 323 323 323 322 322 322 320 319 318 319 319 319 318 318 318 319 318 319 318 316 316 317 319 317 317 317 317 317 317 317 315 314 310 308 308 309 306 306 307 305 305 308 309 311 311 311 309 310 313 315 315 312 309 304 303 302 301 301 301 301 300 299 300 301 302 305 305 305 305 304 304 305 304 305 305 305
324 325 324 324 323 322 321 321 321 321 321 320 319 319 319 317 317 316 316 317 316 317 316 316 317 318 318 318 318 317 320 319 319 321 320 319 315 315 314 316 315 312 310 308 308 311 307 308 308 305 306 307 308 311 310 308 310 310 312 312 313 309 303 303 302 300 301 301 300 300 299 300 300 302 304 304 304 303 303 303 303 303 304 304 303
322 323 322 320 321 320 319 317 318 318 319 319 318 317 317 315 315 314 315 315 314 315 317 317 317 318 319 318 319 317 320 319 319 319 320 319 317 316 315 317 317 317 314 311 308 310 312 308 306 306 305 306 307 310 309 308 307 310 312 312 310 308 306 303 302 302 301 300 299 300 300 300 300 301 301 303 303 303 303 302 303 303 303 302 302
322 321 320 319 319 319 317 316 316 316 315 316 316 316 316 316 314 313 316 315 313 314 315 317 316 318 318 318 317 317 318 317 318 318 318 320 320 317 318 318 317 318 316 314 311 309 310 309 307 306 306 308 308 308 309 307 306 307 312 310 310 309 310 309 302 301 302 300 299 300 300 301 299 300 300 301 300 301 301 300 301 302 302 301 300
322 320 320 319 318 318 317 316 316 315 314 315 316 316 316 316 315 315 316 315 314 314 315 316 317 317 316 316 316 316 318 317 316 317 316 317 318 318 318 316 316 317 316 314 311 308 309 311 309 306 307 309 307 308 307 309 311 309 307 310 310 310 310 312 309 301 300 300 299 299 299 299 298 299 299 298 298 298 300 300 300 300 300 299 299
322 318 318 319 320 318 317 317 318 317 315 315 316 317 315 316 316 316 316 315 314 314 315 313 315 316 317 315 313 315 316 314 316 313 314 314 314 314 315 316 313 315 316 314 312 311 309 309 308 308 307 310 306 307 309 310 309 310 307 309 309 308 308 310 311 308 299 300 299 299 300 299 299 298 297 298 298 298 299 299 298 297 298 298 297
323 320 319 320 319 318 318 318 318 318 318 316 318 318 318 317 316 317 317 317 316 316 316 314 313 314 315 315 315 315 316 316 316 316 315 314 314 313 315 314 314 313 313 314 313 312 311 309 311 308 309 309 310 307 308 309 309 308 308 309 308 309 309 310 309 309 298 300 299 300 299 299 299 298 297 298 298 297 297 298 298 297 297 298 298
319 324 323 319 319 319 318 318 318 319 318 319 318 317 317 318 318 318 318 319 318 318 317 316 315 315 316 316 316 317 316 316 316 316 316 316 315 315 315 315 315 312 315 315 316 315 313 309 309 308 309 310 308 308 308 308 309 309 309 309 309 309 310 310 309 309 303 299 299 299 300 300 299 298 297 297 298 298 297 297 297 297 297 298 298
322 322 322 320 319 319 319 317 317 318 319 318 318 319 319 319 319 319 319 319 320 319 319 318 317 318 317 317 318 317 317 317 317 316 317 316 315 315 314 314 313 314 314 314 315 315 315 313 311 311 312 310 310 311 309 309 309 309 310 309 309 309 311 311 311 309 304 298 299 299 299 299 298 298 298 298 298 298 297 297 297 298 299 299 298
323 322 320 320 319 318 318 317 317 317 318 318 318 318 319 320 321 321 321 320 320 319 319 319 319 319 319 318 319 319 318 318 318 318 318 317 315 315 314 313 313 313 314 314 315 315 314 314 313 310 312 310 310 310 311 310 310 310 310 311 312 311 311 312 312 310 310 309 311 309 304 302 300 298 299 300 298 297 297 298 298 299 300 299 297
324 323 321 320 320 319 318 318 318 317 317 317 319 320 321 322 323 323 323 324 323 324 322 321 321 321 321 320 320 320 319 319 319 319 319 318 316 316 315 315 313 312 313 313 312 312 313 313 313 314 312 312 312 310 308 310 310 309 309 309 309 311 312 311 310 311 311 310 306 300 301 302 301 302 301 298 298 298 298 299 300 300 299 297 296
324 323 322 321 321 320 320 320 320 320 320 319 320 321 322 323 323 323 324 325 324 324 324 324 324 322 321 321 321 320 320 320 320 320 319 318 319 318 317 317 315 313 312 312 312 311 312 313 312 311 312 312 311 312 310 311 310 310 309 308 307 308 309 310 311 309 311 309 308 307 303 301 301 301 297 297 298 298 298 300 301 301 299 296 295
325 324 324 322 321 320 322 322 322 323 322 323 323 323 323 321 322 322 322 321 322 322 322 322 322 323 323 325 324 323 324 318 308 310 309 309 322 319 318 317 315 312 312 312 312 311 312 312 312 313 311 311 312 311 310 309 308 306 309 310 308 309 308 308 309 310 309 307 307 306 305 306 305 307 307 308 307 304 303 301 302 300 298 295 295
325 324 324 324 323 322 322 322 323 325 326 327 321 311 315 321 323 322 321 320 319 320 321 322 323 324 323 324 325 316 311 309 307 302 300 300 302 312 318 318 314 312 312 311 310 311 312 311 310 310 309 310 310 311 309 309 310 310 308 308 306 307 307 307 308 309 309 308 306 304 304 306 306 306 307 306 307 308 308 308 307 300 298 296 296
324 324 324 323 323 322 322 323 324 324 324 321 302 302 303 308 319 322 320 319 319 320 321 322 323 325 326 325 328 319 314 309 311 299 298 297 297 297 297 297 302 319 313 310 310 311 310 310 310 310 308 308 309 311 309 308 309 309 307 308 307 306 305 303 301 306 310 307 305 303 303 306 306 304 305 305 307 308 307 308 298 298 297 296 296
325 325 323 322 322 323 323 324 323 322 322 313 301 298 298 301 309 319 319 318 319 320 320 321 322 321 320 322 323 323 323 322 322 319 306 297 295 296 295 295 292 290 292 310 312 311 310 309 308 309 309 308 308 309 308 308 307 306 307 307 306 305 304 303 302 302 306 308 304 302 302 306 306 304 304 305 306 307 306 302 298 297 296 296 296
324 322 321 322 322 321 321 320 320 320 320 309 302 299 297 298 301 311 319 320 321 322 321 320 319 318 319 319 320 322 320 310 314 319 322 313 295 292 293 293 292 292 291 290 293 309 312 309 308 308 308 308 307 307 309 307 307 305 305 304 306 304 304 302 302 302 304 306 303 301 300 303 304 303 303 305 306 307 307 300 296 297 296 296 296
322 322 322 322 322 320 319 319 319 320 321 308 301 299 297 296 297 302 321 322 322 320 320 320 320 319 319 318 318 319 319 318 318 318 318 318 310 306 305 305 305 301 293 293 293 294 301 308 308 306 309 307 306 308 308 307 304 303 303 303 304 302 302 301 303 303 304 306 303 301 299 301 303 302 301 304 306 306 306 302 296 297 296 296 296
322 321 321 321 321 321 321 321 322 320 321 301 298 297 296 295 294 299 323 322 320 320 319 319 319 318 318 319 318 317 316 313 310 307 316 315 313 311 309 309 309 309 311 310 311 311 309 309 308 308 308 307 307 307 307 307 306 305 305 303 302 302 302 303 304 305 305 305 305 303 297 300 303 301 302 303 305 305 306 300 298 297 297 296 296
323 322 322 322 321 321 321 322 322 321 328 294 296 296 296 295 294 316 320 318 318 316 316 317 317 317 317 317 317 315 313 309 298 291 300 314 313 311 310 310 309 306 302 295 292 294 303 308 309 309 309 304 296 304 303 303 304 305 304 304 304 303 302 300 299 301 300 304 305 301 299 299 303 301 301 303 304 303 304 305 299 297 297 296 297
321 320 321 321 321 320 320 321 321 322 322 300 295 296 295 293 300 318 318 315 315 315 315 316 315 315 315 315 315 314 311 307 294 292 294 297 312 310 309 309 308 307 304 300 293 290 290 290 289 288 289 289 290 290 290 289 297 299 299 298 299 301 298 296 297 298 299 302 303 303 300 298 301 301 300 302 302 301 302 302 305 298 296 297 295
320 320 321 320 321 321 321 320 319 318 318 302 292 294 293 293 304 317 315 314 314 314 314 314 313 309 305 297 308 313 310 306 291 292 292 304 311 310 309 308 307 306 305 304 303 299 289 290 289 289 289 290 289 287 289 290 288 293 299 296 299 298 297 297 295 297 299 300 301 303 300 298 301 301 299 301 301 302 302 303 304 303 295 296 295
322 321 320 320 320 320 319 318 311 317 317 305 292 293 293 295 307 315 314 314 312 312 312 311 310 308 305 301 294 301 305 299 289 292 291 300 311 310 309 308 307 307 306 306 305 304 304 303 301 300 299 294 298 300 300 289 291 293 298 299 300 298 297 296 297 296 295 298 302 304 297 298 298 300 299 297 296 300 303 302 302 303 303 303 303
Wind_Speed
2 2 4 2 1 2 3 5 9 5 4 4 3 3 4 3 4 4 4 4 4 4 5 5 4 4 4 1 1 3 3 2 3 3 4 4 5 7 6 5 4 4 4 3 1 4 3 3 3 4 4 2 3 2 4 5 5 5 6 6 6 6 6 6 6 6 6 5 5 5 4 4 5 4 5 6 5 6 5 5 6 7 7 7 7
5 5 4 3 3 0 1 1 3 7 5 4 3 4 4 4 4 4 5 3 2 3 5 6 4 5 6 3 1 2 2 2 2 2 5 4 5 7 8 5 3 3 2 2 2 1 2 3 4 4 3 3 3 5 5 4 4 5 5 5 5 5 5 6 5 6 5 5 5 4 4 5 5 5 4 4 5 5 5 5 5 6 6 5 7
5 6 6 5 4 4 3 2 2 2 6 8 3 3 4 4 5 5 5 5 2 2 2 6 5 4 5 3 1 1 1 3 3 2 2 3 3 4 8 7 5 3 1 1 2 2 1 2 3 4 3 4 4 3 4 6 6 4 5 5 5 4 4 5 6 5 5 5 5 4 4 4 4 5 4 3 4 5 5 4 4 4 5 6 6
5 4 5 5 5 4 4 3 3 2 4 6 6 4 4 5 5 5 5 4 4 2 2 3 3 4 5 6 5 3 3 4 1 1 1 1 2 3 4 7 7 6 3 0 2 2 2 1 2 4 4 3 4 4 4 3 3 6 6 7 6 6 5 5 5 6 5 5 5 4 5 4 4 4 4 4 4 4 3 4 4 4 4 5 6
4 5 4 4 5 5 5 5 5 2 4 10 5 6 5 5 6 6 4 5 5 5 4 3 3 3 3 4 3 3 6 3 1 2 2 1 0 1 1 3 6 6 6 5 2 1 2 2 3 3 3 2 2 5 4 4 3 3 9 9 8 8 7 7 6 6 6 5 6 5 5 4 4 4 4 4 4 4 4 3 3 3 3 5 4
4 5 4 4 4 4 5 4 3 5 2 5 2 4 5 6 8 5 2 3 5 5 5 5 4 3 3 3 3 3 1 8 2 1 1 3 3 1 1 1 1 2 6 8 7 5 2 3 3 3 2 2 3 2 4 5 4 5 4 9 9 8 8 7 6 6 6 6 6 6 5 4 5 5 4 5 5 4 4 4 3 3 3 3 4
5 5 5 4 4 5 5 5 4 6 3 1 6 3 4 5 6 9 3 3 4 4 3 4 4 5 4 3 3 2 3 4 5 4 2 2 1 3 4 0 2 1 1 2 9 7 6 4 5 3 3 4 4 4 5 5 5 5 5 10 10 9 7 6 6 6 6 6 6 6 6 6 6 6 6 5 5 4 4 4 4 4 2 3 2
6 5 5 4 4 4 5 4 5 3 1 5 8 6 4 3 4 10 2 5 6 5 4 5 5 5 4 3 3 2 2 3 3 2 2 1 1 1 2 3 3 1 1 2 3 5 8 6 3 4 5 5 6 5 4 4 4 4 6 6 11 9 8 7 7 6 6 6 6 7 7 7 7 7 7 7 6 5 5 5 4 5 5 3 3
6 6 4 5 4 4 4 4 4 4 2 3 4 4 4 4 4 5 7 5 6 6 5 5 5 5 4 4 4 3 2 2 2 3 2 2 2 1 1 0 2 4 1 1 3 2 6 9 6 6 6 4 5 7 6 4 3 4 4 6 8 10 8 8 8 7 7 6 6 6 6 6 6 7 6 6 7 6 6 6 5 4 4 5 4
6 6 4 4 3 4 4 4 4 3 4 6 8 8 4 4 5 4 3 4 4 5 5 4 4 5 5 4 4 2 2 1 1 0 1 1 1 1 2 2 2 2 1 1 2 4 7 6 8 7 5 4 4 5 6 5 5 3 2 6 7 5 8 9 8 8 7 6 6 7 7 7 7 7 7 7 6 7 6 6 6 6 5 5 5
6 4 4 4 4 3 3 3 2 2 2 9 3 5 3 4 4 5 4 3 3 4 3 4 4 4 4 4 3 3 2 1 1 1 1 2 3 2 1 2 2 2 3 1 2 1 2 5 6 2 5 7 6 3 3 3 2 2 4 5 6 4 4 6 9 9 8 8 8 9 8 7 9 9 8 7 6 6 6 6 6 7 7 6 6
4 7 5 3 2 3 3 3 2 1 4 8 6 4 3 4 4 4 5 4 4 5 5 5 4 4 3 3 3 2 3 2 1 2 2 3 3 2 2 3 2 2 2 3 3 4 3 3 4 3 4 5 4 4 3 0 1 2 2 3 5 5 6 7 6 6 9 10 10 9 9 10 10 10 10 9 8 7 7 7 7 7 8 8 8
3 3 4 4 3 3 4 3 3 4 5 1 4 3 1 2 3 3 4 4 4 3 4 4 5 5 3 5 3 1 3 2 2 2 2 2 2 2 3 3 4 3 4 4 4 3 3 4 2 2 3 7 1 3 4 4 3 5 6 5 4 4 7 8 8 7 6 6 10 11 8 11 11 11 11 10 9 8 8 8 9 9 8 9 9
3 3 3 3 3 3 3 3 4 4 2 3 5 7 4 3 3 4 2 3 3 3 3 4 6 5 7 5 3 2 2 3 4 4 2 3 3 3 3 3 3 2 3 3 3 2 3 3 3 3 3 0 7 5 5 5 5 8 9 10 8 5 3 4 7 8 8 9 9 9 8 9 12 12 13 12 11 10 10 9 9 9 9 9 9
4 4 3 3 3 3 3 3 3 3 4 4 5 6 6 6 5 3 4 3 3 3 3 4 2 2 3 3 5 4 2 3 5 5 4 4 2 3 2 2 3 3 3 3 2 3 3 2 3 3 2 1 2 2 4 7 7 11 13 13 11 9 7 5 4 6 9 10 11 11 10 9 10 13 13 13 13 12 12 11 10 10 10 10 10
7 6 4 4 3 3 3 3 3 3 3 4 5 5 5 6 5 5 4 4 4 4 3 3 4 4 6 5 4 5 7 5 6 5 5 5 4 3 2 3 3 3 2 1 3 3 3 4 3 3 3 2 3 3 4 5 10 12 14 13 12 11 10 9 9 8 6 8 10 12 11 11 11 13 14 15 14 14 13 12 12 12 12 11 11
5 6 6 5 4 3 3 3 3 3 3 4 4 4 6 5 5 5 5 4 5 4 4 3 4 2 1 5 1 1 1 5 6 6 3 5 5 5 4 4 4 4 3 4 4 4 4 5 5 4 4 3 3 4 5 5 4 7 9 12 12 13 13 11 10 10 9 9 8 11 11 12 12 11 14 14 15 15 15 14 14 13 12 12 11
4 5 6 6 6 5 4 4 4 3 3 3 4 4 4 5 6 5 5 4 3 5 4 3 3 3 2 1 0 2 4 9 7 6 5 5 4 5 6 6 5 5 5 5 6 6 5 5 5 5 5 5 6 7 8 7 7 7 7 8 11 12 12 12 12 11 10 9 8 8 10 12 13 13 13 13 14 14 15 16 15 14 13 13 12
4 5 5 5 4 4 3 2 3 3 3 2 3 3 3 3 5 5 4 4 3 4 5 4 3 2 2 1 2 4 7 6 3 7 6 5 4 5 6 7 7 7 6 7 7 6 5 5 6 6 6 6 7 7 7 8 10 10 13 10 10 9 9 9 11 12 10 8 7 7 7 9 10 12 13 13 13 14 14 14 14 13 14 14 14
5 5 6 5 4 4 3 2 1 2 3 3 3 3 3 3 3 2 3 3 4 3 4 4 4 4 2 3 4 1 2 2 1 3 5 6 7 7 7 7 7 7 6 7 7 6 5 5 6 6 6 7 6 6 6 7 7 7 7 10 9 9 9 8 9 10 11 9 8 5 5 6 8 7 10 12 12 11 13 15 15 15 15 15 14
4 5 5 6 5 4 3 3 2 2 3 3 3 3 4 5 5 4 4 3 3 2 3 4 3 4 4 4 3 4 3 3 2 7 3 6 7 7 7 7 7 6 6 6 6 6 6 6 6 7 6 6 6 6 6 6 6 7 9 11 11 10 10 9 9 10 10 11 11 9 5 4 7 6 5 6 10 12 13 14 14 16 15 15 14
4 4 5 4 4 3 3 3 2 1 2 4 4 4 4 5 5 4 4 3 2 3 3 3 3 5 4 4 4 3 4 4 5 4 4 5 6 7 7 7 7 5 4 5 6 6 6 5 6 7 6 5 6 6 7 8 7 7 9 12 12 11 11 11 10 11 11 11 12 13 13 12 8 9 10 7 8 11 14 16 17 17 15 15 16
4 4 4 4 4 3 3 4 4 3 3 3 3 4 4 4 4 4 4 3 3 3 3 3 3 4 4 4 4 4 3 4 5 4 3 4 6 7 7 7 8 7 5 5 5 6 6 6 6 6 5 6 6 6 7 8 10 10 13 13 13 12 12 11 11 12 12 12 13 14 16 16 15 11 11 10 9 7 7 13 18 17 15 15 15
5 5 4 4 4 4 4 4 4 4 4 3 3 3 3 3 3 3 4 3 3 3 4 5 4 5 3 2 2 2 2 3 3 2 3 4 5 6 6 8 7 6 6 5 6 6 6 6 6 6 6 6 6 6 6 8 9 9 11 14 13 13 13 12 11 11 12 13 13 14 16 16 16 15 14 13 11 12 11 13 12 9 7 8 12
5 6 5 5 4 4 4 4 4 4 4 4 5 4 4 4 4 4 5 5 5 4 4 5 5 4 4 2 2 2 1 2 1 1 1 4 5 6 6 6 6 6 6 5 5 6 6 6 6 6 6 6 6 6 6 7 7 6 9 12 15 13 12 13 12 12 12 13 14 15 15 15 16 16 16 15 15 14 14 13 12 10 10 8 9
6 6 5 5 5 5 5 6 6 5 5 5 4 4 4 5 5 6 6 6 6 6 6 5 5 4 3 2 3 3 3 3 2 1 3 4 5 5 5 5 5 5 5 5 4 4 6 6 6 6 6 6 5 5 5 6 6 4 7 10 12 13 12 12 12 12 12 12 13 13 15 15 15 15 15 15 14 14 13 12 11 10 9 9 9
6 6 5 6 6 6 6 6 6 6 5 5 5 5 4 4 6 5 5 5 5 5 5 5 4 4 4 3 4 4 3 3 1 1 3 3 3 4 4 6 4 3 4 4 5 6 5 6 5 6 5 4 4 5 5 6 5 5 7 7 8 12 11 12 11 11 12 12 12 12 12 12 12 12 13 12 12 13 14 13 12 12 11 10 9
5 5 5 5 6 6 6 7 6 6 5 5 5 5 4 4 5 5 5 4 5 5 5 5 5 5 5 3 3 5 3 3 3 3 3 2 3 4 3 3 5 5 3 4 4 5 3 4 6 6 5 4 4 4 3 3 4 7 4 5 6 8 10 10 11 11 11 11 11 11 11 11 12 12 13 12 13 13 13 13 12 13 12 12 12
5 4 5 5 5 5 6 6 6 6 6 5 5 5 4 4 5 5 5 4 4 5 4 5 5 4 4 4 5 5 5 4 5 4 4 2 3 2 3 2 2 3 4 5 4 4 5 5 3 5 5 5 3 3 3 5 5 10 4 4 6 6 6 8 9 10 10 10 10 10 9 10 10 11 12 11 12 12 12 11 11 12 13 14 12
4 3 5 5 5 5 6 6 6 6 5 5 5 5 5 5 5 5 5 5 5 4 4 5 4 4 4 4 4 5 4 4 5 4 4 3 2 2 0 1 2 1 3 4 5 3 5 4 4 4 4 4 3 2 2 4 6 8 4 3 4 6 6 8 8 8 9 9 9 9 9 9 9 9 10 10 10 11 10 10 11 11 12 12 12
5 4 5 5 5 6 6 6 6 6 6 5 5 5 5 6 6 6 5 5 5 5 5 5 4 5 5 5 4 5 4 4 3 4 3 3 4 3 3 3 3 3 3 5 5 3 2 4 4 3 4 3 3 3 2 3 3 6 1 1 3 9 7 8 8 7 8 8 9 9 9 8 8 8 8 8 9 9 10 10 10 11 11 11 12
6 5 5 6 6 6 6 7 7 7 6 6 5 6 6 6 6 6 6 6 6 6 6 5 4 5 5 5 4 4 3 3 3 3 3 2 2 3 4 4 4 3 1 1 4 6 2 3 3 3 3 2 1 3 3 3 4 8 2 1 1 11 9 7 9 7 7 7 7 8 8 8 8 8 8 7 7 7 8 9 9 8 9 9 11
6 7 6 6 7 7 8 7 8 7 7 6 5 6 6 6 6 6 6 5 6 5 5 4 4 4 4 5 4 4 2 2 3 3 3 3 2 2 2 3 3 2 1 3 5 6 4 2 2 2 2 3 3 1 3 2 2 3 1 2 1 2 2 1 6 8 5 5 6 7 7 8 8 8 8 8 8 8 8 8 8 8 8 9 9
5 6 7 6 6 7 7 8 8 8 8 7 6 6 6 6 6 4 5 5 5 6 4 4 4 2 2 3 4 3 2 2 1 3 4 3 3 4 3 1 3 2 1 1 3 4 5 4 3 3 3 3 2 1 2 1 1 2 0 1 1 2 3 4 1 6 5 3 5 6 7 7 7 7 8 8 8 8 8 8 8 8 7 7 8
5 5 7 7 7 7 7 7 8 8 8 8 6 6 6 7 6 5 4 4 5 5 4 4 5 4 3 2 3 3 1 2 1 2 1 1 1 3 2 2 2 2 2 0 1 3 4 4 4 5 3 2 2 3 3 2 1 1 2 1 1 0 1 2 4 2 7 3 2 5 7 7 7 7 8 8 8 8 9 9 9 9 8 7 8
7 4 6 7 8 7 7 7 7 7 7 7 7 6 7 6 6 6 5 4 4 3 3 4 4 4 3 3 3 3 3 2 2 1 2 1 2 2 2 3 3 3 2 1 2 1 3 4 4 3 4 4 4 3 2 4 3 2 2 1 2 1 2 3 3 2 7 4 6 7 7 8 7 7 7 8 8 8 8 8 9 9 9 8 8
7 7 6 6 7 8 7 8 8 8 7 8 7 6 6 5 5 5 4 4 3 2 2 1 1 2 2 3 3 4 4 3 3 3 2 2 3 2 2 2 3 3 3 3 1 2 2 2 3 1 2 3 1 1 1 3 2 3 3 3 2 3 2 3 4 3 4 9 9 9 8 9 10 7 7 8 8 8 8 8 8 8 7 6 8
7 6 7 6 6 8 8 8 8 8 8 7 7 7 7 6 5 4 4 4 3 3 3 3 3 3 3 4 4 4 5 5 5 4 3 5 4 3 3 3 2 2 2 2 2 2 4 2 3 3 2 2 3 1 0 1 3 3 3 4 2 3 3 4 4 3 3 2 3 3 7 9 6 7 8 8 8 9 8 8 9 8 5 5 8
7 7 8 8 6 7 8 8 8 8 8 8 7 7 7 7 6 5 4 3 3 3 2 3 3 4 5 5 6 6 6 6 6 6 6 5 4 5 5 4 4 3 3 4 3 3 3 3 3 2 2 2 2 2 3 1 3 2 3 5 6 5 5 5 6 4 2 3 5 11 9 7 7 9 6 9 10 10 9 9 9 7 2 4 8
7 8 8 9 8 7 8 8 8 8 8 8 8 8 7 7 5 4 3 2 1 1 1 2 3 4 4 5 6 6 6 7 7 7 7 7 6 6 6 5 4 4 5 4 4 4 5 5 6 4 4 3 3 2 2 2 3 3 4 5 7 7 6 6 7 7 3 4 6 7 6 10 12 13 16 16 14 9 10 11 11 6 2 7 8
6 7 8 9 9 10 9 9 9 8 8 7 7 7 7 6 5 4 3 4 5 4 4 4 4 4 5 8 6 6 1 5 8 6 6 6 4 7 7 6 6 5 4 5 5 5 5 5 6 5 5 6 6 4 5 4 4 5 5 4 6 7 7 8 8 6 2 5 6 7 8 8 8 7 8 7 2 10 9 11 7 10 6 8 8
8 8 8 9 10 11 11 11 9 7 6 4 5 6 2 3 3 4 2 2 5 6 6 6 6 4 6 8 5 8 6 3 3 5 6 7 6 7 6 4 6 6 8 7 6 5 5 6 7 6 7 7 7 4 4 3 2 4 5 6 8 8 8 8 8 6 4 4 7 9 9 8 7 8 8 6 6 5 5 6 5 8 8 8 8
9 8 8 9 10 10 11 10 9 6 4 4 11 9 7 3 2 3 3 2 7 7 6 6 6 6 6 5 2 8 6 7 8 9 8 7 8 8 6 7 6 3 7 7 7 6 5 5 5 4 5 5 5 4 4 3 3 3 5 6 7 8 8 9 10 8 3 5 8 10 10 8 7 8 7 7 7 7 6 4 10 8 7 7 8
8 8 9 10 9 9 8 8 7 5 3 3 10 10 8 7 5 5 6 8 7 7 6 5 5 5 4 4 4 3 3 4 4 6 8 9 4 1 3 5 6 9 9 5 4 4 4 5 4 5 4 5 4 4 4 3 5 6 7 7 7 7 8 9 9 9 7 7 9 11 11 8 7 8 9 7 7 7 6 4 5 4 5 6 8
7 8 10 10 9 8 5 5 5 5 7 8 11 10 10 10 8 6 6 7 6 5 4 4 3 3 3 2 2 2 2 3 5 4 3 7 8 8 9 9 10 9 9 9 9 6 5 4 4 5 3 4 5 4 3 3 4 7 7 7 7 7 8 9 9 10 10 9 9 10 10 9 8 8 8 7 7 7 7 8 9 7 7 5 7
9 9 10 10 8 9 9 10 9 9 10 13 15 13 13 13 12 9 6 6 5 4 3 3 2 2 1 1 1 1 2 1 2 1 1 4 6 6 6 6 6 7 7 8 6 6 4 4 3 4 3 3 4 3 2 2 4 6 7 8 8 8 9 10 11 12 11 8 8 8 10 9 7 8 9 9 7 7 8 6 7 7 6 6 6
9 9 11 11 10 9 10 10 11 11 11 13 16 15 14 13 11 8 6 5 5 4 4 3 3 2 2 1 1 2 3 3 4 5 0 4 4 5 6 6 6 5 5 4 4 2 1 1 1 1 1 0 1 0 2 2 3 4 5 8 9 9 10 11 11 10 9 8 7 6 10 9 8 9 9 9 8 9 8 9 9 10 9 6 6
7 8 9 10 10 10 11 12 11 12 4 12 12 13 14 13 12 8 8 6 6 6 5 5 4 4 3 2 3 4 4 5 5 6 6 3 6 7 7 7 6 6 6 6 6 8 7 4 4 4 4 6 7 5 5 4 4 5 6 7 8 9 9 9 9 9 9 7 6 7 9 10 8 10 10 9 9 10 9 8 8 10 9 8 7
9 10 10 10 9 9 10 10 10 6 2 6 11 13 13 14 10 9 8 8 8 8 6 6 5 5 4 4 2 4 5 5 4 4 5 5 6 6 6 6 5 5 6 5 6 7 7 8 8 8 7 5 4 3 2 2 3 5 6 8 9 7 9 11 10 9 9 7 7 8 10 11 8 9 11 9 10 10 10 10 10 8 9 9 9
10 10 9 9 7 7 7 6 4 5 4 5 6 9 11 14 12 8 8 8 9 7 7 6 5 6 7 9 8 4 5 5 3 3 5 6 4 5 5 5 5 5 5 5 4 4 5 5 5 4 4 4 3 3 3 3 4 6 6 8 9 9 10 9 11 9 9 9 10 7 7 9 9 9 10 10 10 10 9 8 7 2 13 14 17
9 9 8 8 8 7 7 6 6 5 3 6 8 8 10 15 11 9 9 8 9 8 7 7 6 6 6 8 12 9 7 5 4 5 7 6 3 3 4 4 4 4 4 4 4 4 4 4 5 5 6 6 7 7 8 11 9 9 8 9 8 8 9 9 10 10 10 7 4 3 6 9 9 9 9 10 10 8 7 7 7 8 10 11 8
Wind_Direction
119 255 284 236 328 23 339 349 313 279 191 200 198 174 168 158 165 154 141 147 144 165 151 139 152 147 111 56 19 142 139 139 111 114 86 90 100 106 99 80 66 47 41 75 99 141 146 140 140 129 130 162 108 141 141 138 138 132 127 120 121 116 113 110 100 100 105 99 103 95 103 96 85 78 70 67 73 72 66 69 71 65 62 66 67
172 193 213 198 227 120 355 196 256 299 293 229 183 176 160 153 156 139 126 115 140 124 143 143 143 132 133 159 204 127 151 150 116 113 114 102 112 125 110 107 87 71 29 15 106 144 136 146 147 144 144 155 148 158 172 161 157 152 135 131 127 134 130 129 129 117 123 125 111 123 100 83 82 81 90 78 75 74 67 74 82 71 69 71 69
191 186 188 187 175 172 187 198 253 317 318 300 206 166 153 155 156 150 139 122 110 100 172 144 144 135 140 118 316 272 117 55 11 75 102 96 114 127 134 127 119 120 118 47 21 142 216 152 155 164 155 166 165 170 162 178 178 169 161 147 149 146 151 147 143 148 133 144 135 131 118 116 124 110 102 106 97 91 86 77 73 85 92 84 84
197 186 184 186 169 165 195 216 234 198 260 247 246 158 162 153 140 120 101 112 123 98 26 163 143 126 145 149 166 126 88 74 139 263 250 118 100 107 133 148 144 142 154 36 105 130 185 260 200 168 168 180 183 178 173 185 172 178 179 171 166 167 170 169 163 157 158 150 153 151 143 140 129 128 109 107 102 101 99 103 93 80 82 82 77
190 198 186 199 179 169 193 198 220 235 202 255 150 237 151 149 146 114 113 129 130 131 131 109 87 94 103 106 98 81 103 127 78 308 67 106 59 48 56 126 161 163 147 156 153 96 124 138 204 206 179 207 198 184 174 182 189 203 182 180 178 181 183 183 179 174 171 168 165 167 150 160 148 137 146 125 138 127 124 126 102 97 91 85 99
192 192 190 195 189 182 202 212 199 223 205 257 228 204 174 157 132 114 167 138 128 138 147 139 125 118 91 81 67 64 95 117 279 174 201 122 124 126 32 3 76 166 168 161 164 174 166 158 170 188 245 244 174 214 173 192 191 192 183 182 184 191 191 192 192 185 182 180 178 180 166 168 162 154 157 159 140 152 135 135 148 98 105 98 82
199 194 193 197 181 185 203 204 199 216 158 282 247 270 174 167 158 125 191 158 143 132 126 113 117 107 90 79 106 133 97 109 179 220 129 90 162 133 143 126 5 318 345 172 169 177 167 183 176 177 197 207 238 195 193 212 204 195 202 178 193 195 196 202 204 203 197 192 190 186 186 185 180 178 165 166 172 163 167 152 155 161 130 136 124
188 194 198 199 179 194 199 192 195 206 169 162 232 215 181 170 137 121 144 196 145 139 140 122 107 101 104 102 91 87 89 88 97 108 93 105 80 123 151 153 176 183 268 315 343 167 182 176 192 210 190 204 227 230 247 224 220 222 199 203 191 193 199 206 212 219 213 213 207 205 199 200 192 188 187 170 175 185 171 179 174 156 176 154 163
193 195 198 190 186 181 195 191 203 193 203 193 221 269 196 157 142 148 165 166 165 146 145 137 127 126 120 112 99 79 77 56 54 28 48 43 349 25 108 75 123 155 196 285 176 165 221 190 199 196 196 218 215 232 227 242 268 274 248 238 208 199 203 209 215 219 226 229 227 223 225 221 209 204 198 191 173 182 187 185 194 169 178 183 176
183 202 202 192 186 180 170 198 202 174 183 232 193 208 163 162 139 138 143 169 158 149 150 151 143 139 132 122 112 109 96 87 81 156 188 96 100 1 0 29 348 5 1 257 184 188 199 221 195 173 257 265 236 234 248 254 252 251 329 316 310 271 227 223 226 226 228 234 232 234 234 228 222 222 214 209 203 187 189 198 193 193 192 198 191
182 175 191 193 176 163 186 170 175 178 107 241 182 155 161 141 144 135 140 164 151 147 145 144 145 152 143 132 140 120 79 64 242 149 68 78 79 62 31 32 22 22 24 351 329 309 1 171 175 173 163 232 258 258 285 282 323 252 242 232 250 263 301 271 248 237 233 232 232 230 230 216 221 224 223 222 221 215 217 212 206 204 200 205 200
185 174 197 174 162 164 157 149 139 132 206 222 164 149 158 149 134 146 147 148 157 149 161 162 146 134 110 132 128 146 125 91 105 81 80 90 80 60 71 41 31 36 32 13 16 6 19 47 21 134 148 191 227 209 192 220 129 321 339 283 264 248 239 241 250 251 241 241 236 240 218 219 217 221 223 223 223 226 226 220 218 215 209 207 206
166 175 157 162 170 152 151 154 142 192 233 49 88 86 194 153 127 142 152 148 131 146 143 175 170 154 144 148 141 109 115 154 108 83 80 76 71 73 56 50 20 8 20 19 9 360 58 17 62 38 126 160 263 181 163 125 46 27 24 11 335 290 251 242 241 238 236 236 239 239 221 213 211 214 219 224 228 229 229 224 220 221 216 214 211
158 143 157 161 149 148 141 163 188 192 166 140 120 150 164 162 152 139 140 143 122 136 148 207 194 174 200 146 125 128 159 170 146 98 113 111 113 105 96 66 54 22 11 349 12 354 31 16 33 16 19 316 159 179 148 188 106 38 27 17 7 343 312 275 254 244 240 237 231 232 240 227 209 208 214 220 225 226 231 228 220 221 223 222 221
139 142 148 162 157 152 154 158 163 154 159 145 140 144 158 167 172 164 140 125 133 159 171 260 327 263 278 159 173 153 151 108 96 99 91 79 62 79 87 95 76 60 29 340 16 4 14 38 3 23 33 16 17 55 81 72 74 52 41 29 22 18 0 353 325 268 245 240 242 239 229 229 217 210 213 217 220 223 224 226 222 220 219 222 223
142 144 138 125 143 155 151 151 152 161 164 160 154 153 168 168 171 171 170 157 172 150 174 210 240 198 225 176 192 171 158 170 118 92 92 93 88 83 75 89 97 89 103 77 43 19 36 32 32 33 31 26 38 66 67 78 117 88 56 34 27 22 15 11 354 336 294 257 243 242 233 231 222 214 212 216 219 221 222 221 222 219 215 219 220
127 127 126 131 138 145 144 143 146 158 171 156 161 164 179 183 175 178 189 196 171 159 177 199 249 281 38 284 171 204 108 114 121 98 108 110 97 95 74 74 68 71 74 79 96 84 57 55 45 44 35 40 78 79 66 71 82 32 59 41 27 27 24 15 6 353 337 315 277 254 238 234 238 229 221 218 219 218 217 219 220 219 215 217 226
122 122 124 129 134 139 144 150 148 163 173 167 167 168 188 181 175 192 189 210 216 168 180 187 229 247 248 168 244 1 154 165 179 124 106 67 68 69 94 82 78 70 61 64 51 54 56 75 64 68 54 50 49 58 66 61 59 54 41 39 25 25 23 16 10 6 351 336 315 300 274 244 235 238 235 229 224 221 219 217 218 217 217 218 227
117 123 126 127 129 134 143 171 161 174 169 180 168 174 183 192 162 189 181 174 203 186 178 171 183 209 234 331 347 151 219 172 166 140 134 100 75 91 78 72 69 70 73 67 71 64 61 68 67 59 63 66 64 69 79 85 82 80 46 21 24 24 20 12 14 11 9 354 332 301 288 288 262 238 234 235 234 230 223 223 223 224 223 225 228
133 134 133 130 122 120 122 108 160 155 191 179 176 182 178 143 155 162 150 160 185 190 178 164 200 147 178 191 173 182 164 323 167 185 145 136 121 94 86 84 82 77 72 77 78 80 70 63 74 75 63 60 65 67 70 67 54 50 44 16 13 19 18 15 6 6 4 19 8 339 304 284 281 288 245 231 235 239 238 236 235 235 234 233 235
115 125 129 121 125 114 123 140 142 160 173 147 150 137 141 137 146 150 153 152 174 138 176 170 193 142 166 166 176 178 167 189 220 235 168 139 127 120 114 103 95 82 78 80 84 80 69 66 70 77 80 77 74 67 63 61 55 50 39 17 19 17 19 20 13 9 10 19 24 17 11 354 356 351 345 255 237 239 243 245 245 241 238 239 240
115 117 118 110 101 115 124 113 124 100 69 91 109 119 125 132 131 136 134 148 142 147 168 154 155 157 176 158 174 165 172 173 196 199 163 146 141 139 135 133 113 91 91 99 95 87 86 76 66 65 66 74 76 76 63 51 43 41 36 27 28 27 28 25 24 18 18 22 28 32 33 32 30 29 1 315 283 267 248 243 240 240 243 237 234
123 114 104 97 92 77 86 102 97 85 96 110 105 114 121 123 121 122 130 141 136 123 130 158 150 159 175 175 172 174 161 162 165 176 164 148 139 140 142 122 116 113 85 70 79 86 89 82 71 60 67 66 61 67 72 67 62 61 47 39 36 34 33 32 29 29 20 24 28 34 41 39 33 37 35 36 20 359 320 256 240 238 237 244 250
125 118 106 98 97 94 95 100 88 84 85 82 84 101 107 112 126 133 127 129 121 146 145 148 160 152 176 144 118 115 147 188 173 168 188 145 154 144 141 135 134 117 121 108 89 80 60 56 62 69 58 59 64 67 79 87 76 69 62 43 41 33 33 31 33 33 29 27 27 35 41 45 42 39 40 39 39 31 29 24 24 20 340 299 273
125 116 106 107 111 114 111 105 103 86 68 80 79 75 88 105 107 118 124 139 143 147 139 132 142 148 133 120 126 121 106 25 62 190 163 143 157 160 140 153 125 135 139 145 110 75 62 62 55 42 53 61 59 56 73 73 67 38 75 59 39 38 32 34 33 30 31 29 26 32 38 42 47 44 39 36 34 34 34 32 25 23 21 13 2
119 110 110 109 95 91 88 83 81 84 82 85 83 85 97 110 105 102 108 104 110 110 111 111 103 101 112 114 74 76 56 60 70 122 155 177 169 161 147 127 149 145 146 150 143 122 85 65 55 55 49 47 53 69 61 72 95 62 64 70 50 33 34 33 34 34 34 32 30 27 28 31 37 42 42 37 33 31 34 38 34 28 22 12 3
114 107 101 100 102 96 93 93 87 84 84 85 92 94 76 82 96 94 90 98 96 96 95 100 101 93 74 79 95 89 86 95 94 101 157 174 165 150 162 143 149 139 124 102 94 61 99 69 46 66 61 48 60 49 59 80 73 23 270 83 71 45 31 33 29 36 36 35 33 30 29 27 23 32 35 32 26 21 24 23 27 28 25 20 9
105 104 98 103 107 110 104 96 94 93 92 97 102 95 82 90 92 84 87 85 96 98 103 94 85 86 92 95 99 89 89 87 94 56 46 93 128 148 163 160 155 143 149 122 96 81 34 92 87 49 63 69 55 67 119 106 67 315 257 68 59 60 38 34 34 35 35 34 33 32 29 27 28 27 29 28 25 22 19 18 17 17 15 13 13
98 93 98 96 99 97 100 99 96 97 99 99 99 94 94 93 94 94 88 84 83 80 76 91 97 101 89 84 91 99 88 76 71 84 86 95 113 158 220 199 214 140 164 137 114 103 73 16 67 74 58 65 53 60 42 41 19 324 80 85 76 66 49 48 41 41 36 33 31 29 26 27 25 24 25 22 24 21 17 14 13 13 10 8 3
109 103 102 102 101 104 103 98 96 100 105 105 99 101 107 101 102 100 92 98 103 101 100 104 102 102 105 102 97 92 74 77 75 70 84 83 108 130 127 90 277 238 151 133 108 72 103 79 38 80 72 81 103 84 75 90 25 318 53 77 105 86 93 66 54 42 39 34 30 27 24 22 19 18 18 15 17 15 13 10 11 10 8 5 0
129 128 128 120 118 112 109 106 105 107 110 110 117 112 108 110 112 109 112 113 106 107 104 105 111 115 111 106 105 99 96 90 94 91 96 108 111 110 86 60 57 33 96 126 136 82 14 97 80 55 71 69 76 85 77 63 47 309 83 77 96 137 139 86 67 47 35 30 23 22 20 17 14 10 10 7 7 6 4 3 3 4 4 3 3
144 154 146 136 135 132 124 121 121 118 119 118 119 120 121 120 125 121 120 126 120 119 124 129 128 128 129 127 120 112 122 135 113 99 89 69 46 84 92 92 84 57 41 80 103 116 81 90 111 122 120 92 111 123 128 134 130 267 96 126 123 172 215 120 91 66 39 24 18 13 11 5 4 3 360 356 357 356 4 3 358 357 360 359 359
167 162 158 152 147 144 141 139 132 129 126 125 126 130 128 127 119 119 134 130 125 119 118 122 126 145 142 127 128 124 127 106 115 133 117 111 120 93 92 113 103 97 84 117 124 124 129 153 165 118 102 227 116 64 102 121 181 158 171 59 8 344 344 227 125 100 63 25 8 360 357 352 353 353 348 347 345 346 354 359 352 350 350 351 354
183 168 160 156 156 157 150 144 140 135 136 133 138 136 130 125 120 128 135 136 120 119 136 134 120 109 126 139 127 127 141 119 176 173 139 168 158 159 139 131 111 99 340 106 130 145 142 169 172 164 147 242 157 119 100 115 123 296 91 157 142 344 22 329 201 113 116 55 346 340 337 332 331 336 335 334 334 334 338 343 345 342 339 340 348
184 183 163 162 165 161 155 153 149 147 145 141 142 139 133 138 134 129 130 124 128 131 144 144 151 132 160 148 153 145 162 164 211 43 66 210 227 97 91 110 108 128 129 103 192 138 163 153 176 181 168 158 276 147 159 144 345 293 240 127 300 52 9 335 315 121 126 129 275 298 311 315 308 309 322 320 321 325 325 330 334 334 335 337 346
176 183 172 174 165 165 160 156 153 155 151 150 151 152 145 140 143 141 142 142 146 151 148 161 148 160 175 182 173 180 180 193 210 152 203 139 261 121 164 145 157 151 128 188 246 171 177 166 182 212 150 186 194 193 191 198 202 226 307 265 225 252 344 339 311 301 126 147 220 253 278 296 285 288 307 306 307 312 313 315 320 326 328 337 344
176 174 181 182 175 170 167 169 164 163 160 159 154 148 142 146 140 138 151 142 146 170 169 170 184 235 203 223 217 194 199 220 202 224 188 222 250 176 217 185 193 150 180 229 227 237 235 190 157 158 181 197 136 149 315 310 200 211 203 229 268 301 283 316 303 285 174 191 229 236 252 272 277 266 292 286 288 295 299 302 308 309 313 329 346
173 175 178 187 190 178 177 176 169 166 164 161 162 155 145 145 140 138 140 148 157 164 168 205 211 206 233 241 235 227 218 229 233 223 230 216 226 241 230 255 222 152 224 196 236 265 283 264 192 174 214 227 201 188 291 256 321 320 339 336 283 215 275 304 315 299 320 317 320 246 233 254 229 262 254 263 276 279 277 287 296 297 298 348 347
174 179 183 184 194 193 182 176 172 169 167 168 159 156 153 145 141 140 146 153 164 167 196 220 218 229 240 241 243 247 244 243 250 251 236 229 237 247 246 225 250 213 219 235 232 222 255 269 250 274 228 183 282 270 166 272 242 263 334 341 327 335 329 324 315 313 269 289 258 218 238 277 290 280 269 243 245 251 266 273 284 276 297 3 349
188 187 189 188 181 197 181 179 175 168 164 167 163 162 157 146 139 137 129 123 80 39 282 272 263 263 255 249 251 251 249 245 249 252 254 245 231 234 230 223 233 227 243 240 244 252 247 254 285 276 279 278 237 236 292 274 322 314 10 338 323 325 324 323 307 303 291 293 313 324 231 213 231 231 233 240 236 252 251 258 247 203 83 4 350
196 197 191 187 183 188 180 179 171 170 174 166 166 168 155 154 149 124 65 26 7 357 330 310 309 315 296 291 266 255 295 37 24 354 344 352 287 247 236 219 221 223 265 268 251 253 265 277 274 261 269 279 286 297 304 316 335 339 329 311 308 315 321 315 316 314 299 301 313 317 316 318 304 302 311 307 222 196 246 227 219 156 31 358 343
198 200 195 191 190 186 183 180 176 166 159 147 88 79 108 164 137 108 86 3 325 320 317 307 291 260 271 258 248 101 99 184 224 249 265 274 288 300 314 254 201 218 230 239 251 253 267 265 271 288 289 292 310 314 306 314 323 313 312 317 314 321 316 315 310 319 332 313 317 314 316 313 305 298 294 296 293 268 286 273 28 4 353 336 326
200 190 193 194 193 191 186 177 166 163 163 155 148 166 168 154 167 155 133 243 261 266 271 279 281 277 254 260 273 146 171 186 208 212 230 231 239 262 285 346 1 287 239 236 241 257 255 258 301 294 277 298 294 296 301 318 308 316 318 314 311 316 321 321 316 318 335 354 318 314 309 312 299 294 297 294 291 286 286 281 33 342 323 304 312
194 179 183 193 192 188 181 173 171 180 213 204 183 182 172 164 183 165 185 202 218 238 262 270 271 277 288 295 293 299 298 9 333 193 199 209 218 130 73 65 54 46 40 27 302 249 248 270 269 265 285 293 320 307 301 323 330 323 317 308 306 313 312 308 306 305 326 334 316 308 303 303 298 295 288 282 284 283 285 308 280 260 264 290 299
201 194 193 188 187 184 193 199 207 208 220 228 212 183 168 171 178 195 198 197 206 223 226 232 256 271 289 299 304 302 93 145 225 241 210 134 96 95 103 96 76 67 61 50 45 10 344 303 299 299 297 334 313 316 42 355 335 306 304 301 314 312 305 297 297 305 307 319 300 292 296 304 300 290 288 289 287 283 277 233 206 209 230 274 284
218 210 200 199 194 198 205 216 220 224 228 206 199 185 171 173 185 207 220 193 203 204 194 187 187 198 160 252 251 169 86 96 30 28 239 128 132 141 152 160 136 115 108 100 88 63 17 342 339 314 33 349 314 10 41 333 306 298 303 303 310 302 298 294 300 294 292 287 277 292 288 289 301 302 291 291 290 287 278 280 176 232 243 243 264
228 222 220 216 214 214 218 222 228 232 235 177 176 172 167 164 172 207 213 185 177 158 152 145 148 126 124 133 151 105 97 60 43 349 93 136 142 146 153 151 144 138 93 71 46 31 58 8 352 10 25 94 291 265 254 269 276 287 297 300 297 291 288 286 276 266 272 267 255 248 276 295 300 292 288 292 293 286 286 284 217 209 208 214 235
231 231 227 223 220 225 228 230 236 240 195 150 162 162 158 158 166 200 199 173 161 152 151 149 141 129 113 110 108 104 91 90 48 347 343 114 143 141 139 136 129 107 80 62 41 35 30 26 25 24 41 46 31 25 18 342 302 290 282 275 271 268 271 281 289 296 288 286 273 265 276 285 294 293 292 290 289 287 290 285 281 186 190 201 221
241 234 230 227 237 243 240 236 240 258 203 154 160 162 157 161 172 206 174 168 154 151 143 136 120 86 59 25 92 108 101 87 33 341 357 312 142 149 146 148 141 135 126 118 86 67 66 70 69 70 68 66 77 68 64 8 337 327 299 289 282 294 297 292 291 291 291 298 292 281 283 285 290 293 294 293 289 291 288 286 285 172 178 184 219
239 236 234 234 226 222 221 219 222 203 165 131 168 166 162 169 196 194 168 163 147 140 133 121 106 88 59 25 359 96 97 97 61 6 346 303 153 146 152 154 157 148 135 144 150 121 121 115 108 115 130 143 184 206 206 200 210 247 268 284 299 298 287 284 289 295 296 296 284 286 276 280 297 292 293 294 292 278 273 276 292 212 182 207 212
240 232 222 225 221 216 206 206 178 159 158 159 175 180 181 190 208 182 182 159 151 146 141 131 124 117 95 60 37 40 67 81 66 48 7 323 164 165 163 187 182 168 134 156 166 170 179 186 177 185 197 194 214 225 199 191 201 215 247 268 281 282 287 291 294 296 291 282 326 57 281 288 293 296 302 299 290 289 286 285 281 281 293 299 279